sat.trackr.live / text

‹ back to catalog

STARLINK-37169

NORAD 68346 · 2026-059AB

PAYLOAD ACTIVE UNKNOWN

§ Identity

Operator
Country
US
Launch date
2026-03-22
Launch site
AFETR
Launch vehicle
Mass (kg)
RCS (m²)

Purposes: comms

External: N2YO · Heavens-Above · Gunter

§ Orbital elements

Epoch: 2026-05-25T04:00:03.998880Z

Period
93.85 min
Inclination
53.1588°
Eccentricity
0.0001047
Mean motion
15.34397721 rev/d
Perigee alt
462.0 km
Apogee alt
463.4 km
Semi-major
6,840.8 km
B*
-3.3497e-4
RAAN
349.1516°
Arg perigee
58.6357°
Mean anomaly
138.8170°
Rev number
592

§ Raw data

STARLINK-371691 68346U 26059AB  26145.16671295 -.00011675  00000+0 -33497-3 0  99942 68346  53.1588 349.1516 0001047  58.6357 138.8170 15.34397721  5920

JSON: /api/v1/satellites/68346 · /tle

For live sub-satellite position, see the globe view (requires WebGL).

§ Visibility from observer

Set your observer location to see the next 7 days of passes ≥ 10°. The values pass through the URL so the page stays shareable.

No JS? Fill the form by hand. The geolocation button needs JavaScript.